Total_Precipitation_Accumulation
2.56 2.49 3.03 4.03 4.65 4.15 3.68 2.93 2.49 2.34 1.98 1.55 1.19 1.17 1.46 1.89 2.38 2.86 3.20 2.98 2.07 1.62 1.72 2.55 3.23 2.91 2.40 2.07 1.93 1.97 1.92 2.03 1.98 1.95 1.76 1.62 1.48 1.39 1.22 1.08 1.14 1.10 1.00 0.94 0.90 0.99 1.02 1.03 1.22
1.90 2.80 3.66 4.62 4.26 3.60 3.37 2.92 2.67 2.20 1.61 1.27 0.94 0.86 0.97 1.05 1.12 1.79 3.02 2.89 1.83 1.48 1.57 1.92 2.67 2.55 2.12 1.92 1.91 2.02 2.04 2.16 2.07 1.89 1.68 1.58 1.57 1.51 1.33 1.21 1.31 1.14 1.02 0.97 0.95 1.02 1.11 1.08 1.20
2.05 3.21 4.24 4.49 3.36 3.06 3.17 2.95 2.45 1.83 1.31 1.19 0.99 0.86 1.06 1.34 1.43 2.05 2.80 2.16 1.57 1.45 1.54 2.07 2.66 2.39 2.08 1.89 2.06 2.26 2.25 2.22 2.03 1.76 1.56 1.55 1.60 1.56 1.49 1.45 1.41 1.15 1.06 0.99 0.97 1.05 1.07 1.06 1.12
2.41 3.60 3.91 3.60 2.95 2.53 2.60 2.59 2.04 1.64 1.26 0.90 0.89 0.92 0.98 1.41 1.48 1.80 1.87 1.56 1.35 1.46 1.56 1.96 2.50 2.35 2.13 1.96 2.18 2.30 2.32 2.31 2.18 1.90 1.64 1.59 1.57 1.53 1.49 1.51 1.36 1.20 1.10 1.00 0.97 1.03 1.09 1.07 1.09
2.87 3.79 3.72 3.19 2.80 2.48 2.20 1.85 1.62 1.52 1.27 0.97 0.83 1.05 1.44 1.84 1.63 1.52 1.48 1.41 1.25 1.34 1.37 1.61 2.22 2.30 2.16 2.07 2.28 2.33 2.37 2.43 2.38 2.08 1.87 1.71 1.56 1.51 1.50 1.52 1.38 1.29 1.20 1.13 1.10 1.13 1.13 1.08 1.13
3.23 3.32 3.54 3.12 2.76 2.53 2.42 1.77 1.54 1.47 1.16 0.95 0.89 1.12 1.82 2.17 1.85 1.61 1.43 1.52 1.47 1.43 1.34 1.33 1.96 2.22 2.20 2.25 2.30 2.28 2.29 2.32 2.35 2.13 1.92 1.72 1.57 1.50 1.60 1.62 1.43 1.34 1.21 1.15 1.17 1.22 1.27 1.23 1.20
3.16 3.23 3.22 2.66 2.68 2.87 2.49 1.76 1.58 1.44 1.34 1.08 0.82 1.22 1.92 2.29 1.92 1.61 1.52 1.54 1.64 1.57 1.51 1.39 1.53 1.83 2.17 2.23 2.11 2.10 2.07 2.08 2.18 2.01 1.87 1.67 1.55 1.45 1.51 1.55 1.43 1.38 1.34 1.31 1.29 1.39 1.39 1.25 1.23
2.31 2.63 2.67 2.58 2.70 2.91 2.16 1.64 1.32 1.26 1.24 0.92 0.76 1.22 1.75 1.76 1.62 1.59 1.69 1.84 1.98 1.76 1.63 1.44 1.37 1.45 1.54 1.76 1.92 2.06 2.11 2.09 2.15 1.96 1.74 1.57 1.48 1.35 1.41 1.38 1.35 1.43 1.48 1.53 1.52 1.53 1.46 1.39 1.30
2.08 2.76 3.03 2.97 2.69 2.30 1.52 1.38 1.17 0.95 1.03 0.92 0.74 0.81 1.01 1.08 1.23 1.47 1.57 1.70 1.80 1.54 1.45 1.49 1.48 1.50 1.55 1.50 1.57 1.87 2.01 2.03 1.90 1.82 1.70 1.51 1.23 1.10 1.20 1.21 1.43 1.54 1.64 1.69 1.70 1.65 1.60 1.45 1.27
2.17 2.89 2.86 2.26 1.98 1.68 1.21 1.17 1.07 1.07 1.13 1.05 0.84 0.80 0.93 1.01 1.22 1.39 1.34 1.39 1.35 1.25 1.23 1.30 1.33 1.45 1.51 1.37 1.58 1.86 1.70 1.60 1.36 1.39 1.26 1.27 1.17 1.10 0.94 1.11 1.48 1.62 1.63 1.62 1.67 1.71 1.51 1.22 0.92
1.75 2.25 2.02 1.77 1.55 1.28 1.10 1.14 1.02 1.05 1.21 1.09 0.89 0.90 1.13 1.20 1.21 1.18 1.12 1.15 1.09 1.05 1.03 0.99 1.06 1.12 1.25 1.41 1.65 1.94 2.00 1.80 1.57 1.32 1.24 1.27 1.16 1.04 0.94 0.96 1.12 1.26 1.28 1.14 1.16 1.17 1.03 0.94 0.86
1.49 1.48 1.47 1.66 1.41 1.31 1.09 1.06 1.08 1.05 1.10 0.97 0.80 0.82 1.00 1.18 1.26 1.14 0.97 0.93 0.84 0.87 0.98 0.81 0.71 0.86 1.04 1.16 1.29 1.57 1.64 1.57 1.43 1.22 1.14 1.25 1.24 1.10 1.06 1.06 1.11 1.13 1.12 1.14 1.11 1.14 1.09 0.91 0.82
1.79 1.56 1.34 1.32 1.32 1.38 1.16 1.07 1.06 1.04 0.95 0.84 0.79 0.92 1.01 1.04 1.08 1.02 0.89 0.80 0.79 0.86 0.92 0.83 0.72 0.71 0.79 0.85 0.96 1.11 1.27 1.35 1.36 1.31 1.12 1.14 1.24 1.19 1.17 1.12 1.17 1.07 0.99 1.05 1.11 1.12 1.14 1.03 0.89
1.60 1.44 1.44 1.44 1.35 1.33 1.33 1.07 1.06 1.26 0.96 0.85 0.92 1.01 0.98 0.93 0.93 1.00 0.93 0.86 0.78 0.78 0.88 0.87 0.77 0.76 0.78 0.75 0.75 0.75 0.90 1.08 1.20 1.23 1.13 1.16 1.23 1.24 1.31 1.25 1.18 1.11 1.02 1.05 1.22 1.17 1.19 1.16 1.09
1.48 1.64 1.59 1.51 1.41 1.38 1.31 1.42 1.33 1.21 1.00 0.94 1.01 0.97 0.93 0.89 0.87 0.96 0.89 0.80 0.76 0.75 0.79 0.85 0.83 0.86 0.88 0.84 0.81 0.67 0.71 0.82 0.99 1.13 1.13 1.20 1.16 1.11 1.19 1.20 1.13 1.12 1.13 1.13 1.18 1.22 1.28 1.19 1.11
1.76 1.94 2.05 1.73 1.48 1.28 1.32 1.76 1.62 1.30 1.07 1.10 1.06 0.96 0.92 0.87 0.82 0.86 0.84 0.82 0.79 0.81 0.85 0.91 0.91 0.93 0.96 0.97 0.95 0.87 0.91 0.99 1.06 1.21 1.19 1.17 1.22 1.18 1.17 1.20 1.18 1.22 1.25 1.23 1.26 1.33 1.33 1.28 1.27
1.94 1.95 1.80 1.66 1.35 1.13 1.17 1.46 1.49 1.34 1.11 0.99 0.97 0.91 0.82 0.73 0.69 0.67 0.66 0.67 0.73 0.77 0.81 0.86 0.95 0.97 0.99 1.02 1.10 1.21 1.26 1.26 1.26 1.32 1.26 1.17 1.21 1.26 1.38 1.41 1.41 1.37 1.39 1.38 1.33 1.36 1.28 1.28 1.30
1.86 1.56 1.35 1.31 1.21 1.07 0.99 1.09 1.14 1.16 1.04 0.87 0.78 0.75 0.75 0.65 0.61 0.55 0.52 0.54 0.62 0.68 0.74 0.80 0.87 1.03 1.14 1.18 1.18 1.34 1.40 1.47 1.53 1.57 1.42 1.30 1.36 1.49 1.68 1.77 1.67 1.63 1.62 1.61 1.55 1.60 1.49 1.38 1.41
1.36 1.33 1.21 1.02 0.98 1.03 0.93 0.92 0.96 0.95 0.93 0.81 0.70 0.58 0.55 0.53 0.51 0.48 0.45 0.48 0.53 0.57 0.62 0.70 0.76 0.92 1.02 1.06 1.19 1.39 1.55 1.72 1.87 1.94 1.82 1.67 1.65 1.81 1.95 1.88 1.96 1.98 1.84 1.84 1.90 1.94 1.91 1.73 1.60
1.20 1.23 1.08 0.92 0.79 0.81 0.82 0.84 0.86 0.80 0.80 0.69 0.58 0.50 0.41 0.34 0.34 0.33 0.30 0.33 0.35 0.37 0.41 0.50 0.59 0.65 0.79 0.96 1.21 1.42 1.71 1.78 1.85 1.97 2.02 1.94 1.88 2.04 2.09 2.16 2.24 2.27 2.27 2.20 2.09 2.21 2.36 2.10 1.88
0.99 1.05 0.96 0.90 0.78 0.72 0.70 0.86 0.82 0.75 0.70 0.61 0.48 0.40 0.32 0.25 0.22 0.18 0.18 0.23 0.29 0.28 0.31 0.40 0.53 0.65 0.87 1.10 1.42 1.70 1.99 2.08 2.12 2.07 2.11 2.16 2.20 2.26 2.30 2.36 2.41 2.42 2.27 2.26 2.36 2.49 2.83 2.65 2.28
0.97 0.71 0.66 0.68 0.84 0.86 0.72 1.02 0.75 0.62 0.60 0.54 0.46 0.42 0.34 0.25 0.20 0.17 0.17 0.19 0.22 0.26 0.32 0.46 0.66 0.87 1.13 1.45 1.83 2.09 2.34 2.46 2.29 2.25 2.24 2.22 2.18 2.22 2.34 2.35 2.33 2.30 2.24 2.30 2.36 2.41 2.83 3.05 2.75
0.67 0.56 0.65 0.69 0.75 0.69 0.52 0.71 0.65 0.51 0.56 0.48 0.41 0.40 0.39 0.32 0.25 0.23 0.23 0.26 0.32 0.41 0.50 0.68 0.95 1.26 1.52 1.76 1.96 2.20 2.33 2.33 2.27 2.22 2.23 2.13 2.09 2.08 2.11 2.11 2.22 2.24 2.27 2.34 2.50 2.63 2.89 2.92 2.91
0.49 0.58 0.72 0.74 0.80 0.85 0.46 0.55 0.67 0.52 0.47 0.43 0.39 0.36 0.32 0.30 0.30 0.30 0.33 0.41 0.51 0.59 0.75 0.94 1.13 1.44 1.62 1.75 1.86 2.02 2.16 2.21 2.19 2.18 2.21 2.20 2.16 2.05 1.98 1.92 2.01 2.14 2.29 2.34 2.43 2.60 2.85 2.96 3.04
0.49 0.82 1.16 1.19 1.13 0.85 0.41 0.59 0.69 0.51 0.40 0.35 0.35 0.34 0.32 0.36 0.40 0.41 0.52 0.66 0.74 0.80 0.92 1.09 1.18 1.38 1.48 1.54 1.65 1.78 1.84 1.87 1.89 1.89 1.88 1.81 1.77 1.77 1.83 1.88 1.97 2.10 2.19 2.26 2.38 2.52 2.58 2.70 2.95
0.44 0.69 1.16 1.26 1.09 0.78 0.55 0.82 0.74 0.49 0.40 0.37 0.37 0.34 0.37 0.49 0.59 0.69 0.83 0.92 1.00 1.03 1.01 1.06 1.21 1.25 1.24 1.29 1.29 1.40 1.50 1.55 1.59 1.55 1.55 1.60 1.62 1.65 1.61 1.66 1.74 1.96 2.15 2.22 2.32 2.33 2.31 2.37 2.56
0.45 0.49 0.56 0.82 0.77 0.80 0.75 0.93 0.85 0.51 0.43 0.43 0.42 0.40 0.47 0.64 0.85 1.08 1.26 1.35 1.43 1.37 1.21 1.09 1.09 1.07 1.06 1.16 1.22 1.25 1.32 1.36 1.37 1.36 1.30 1.40 1.43 1.43 1.39 1.43 1.48 1.60 1.82 2.06 2.21 2.17 2.10 2.06 2.22
0.37 0.49 0.63 0.96 1.13 1.08 0.96 1.08 1.09 0.74 0.58 0.51 0.55 0.62 0.75 0.96 1.29 1.57 1.82 1.95 1.93 1.73 1.49 1.27 1.09 0.99 0.96 1.03 1.11 1.19 1.21 1.21 1.17 1.19 1.11 1.16 1.26 1.25 1.21 1.22 1.31 1.47 1.60 1.78 2.00 2.09 2.03 2.02 2.10
0.40 0.57 0.72 0.92 0.96 1.22 1.38 1.37 1.12 0.97 0.83 0.79 0.89 1.08 1.26 1.51 1.73 1.92 2.08 2.17 1.93 1.76 1.50 1.25 1.08 1.06 1.06 1.10 1.12 1.15 1.11 1.09 1.06 1.01 0.96 1.00 1.09 1.08 1.08 1.23 1.29 1.37 1.47 1.67 1.93 2.10 2.11 2.03 2.04
0.50 0.74 0.96 1.32 1.21 1.12 1.36 1.42 1.04 0.94 0.95 0.99 1.11 1.20 1.34 1.47 1.49 1.60 1.70 1.69 1.67 1.63 1.45 1.26 1.15 1.14 1.17 1.20 1.23 1.18 1.12 1.06 1.03 0.98 0.89 0.87 0.82 0.81 0.94 1.07 1.11 1.16 1.22 1.43 1.71 1.92 1.98 1.95 1.85